INTELSAT 21 (IS-21) (38749 NORAD) Tracking and Keplerian Element Data

This shows tracking and keplerian element data for the satellite.

Feedback or suggestion? Click here.




ElementValue
Catalog38749
NameINTELSAT 21 (IS-21)
Epoch Orbit2315
Epoch Day348.92900693
Epoch Year2018
RAAN328.4801
Inclination0.0181
Eccentricity0.0001899
Argument of Perigee283.165
Mean Anonmoly108.3482
Mean Motion1.00272642
Decay Rate-2.73E-06
L11 38749U 12045A 18348.92900693 -.00000273 00000-0 00000+0 0 9997
L22 38749 0.0181 328.4801 0001899 283.1650 108.3482 1.00272642 23152

Live tracking and technical data element details for INTELSAT 21 (IS-21) (NORAD 38749). INTELSAT 21 (IS-21) can be tracked NOW for your location showing map with azimuth and elevation plus other details from your city location.

Track the satellite on the map from your city or location and see movement details for azimuth, elevation, latitude, longitude, range, height, and movement on the map or in text.







IsCatalogInMostPopularTable: catalog: 38749, numindb: 92
Update: records affected: 1



GetName: 38749 INTELSAT 21 (IS-21)

Hit Count: updated at: Sun, 16 Dec 2018 09:56:48 GMT